Weather History for Salem, IL

Change the Weather History Date:

Wednesday, January 30, 2013

  Actual Average Record
Temperature  
Mean Temperature 42 °F -  
Max Temperature 54 °F 39 °F 58 °F (1969)
Min Temperature 30 °F 22 °F -7 °F (1966)
Degree Days  
Heating Degree Days 23    
Moisture  
Dew Point 40 °F    
Average Humidity 87    
Maximum Humidity 100    
Minimum Humidity 65    
Precipitation  
Precipitation 0.06 in - - ()
Sea Level Pressure  
Sea Level Pressure 29.54 in    
Wind  
Wind Speed 12 mph (WSW)    
Max Wind Speed 31 mph    
Max Gust Speed 41 mph    
Visibility 10 miles    
Events Rain , Snow    
Averages and records for this station are not official NWS values.
T = Trace of Precipitation, MM = Missing Value Source: NWS Daily Summary

Daily Weather History Graph

Daily Weather History Graph

Search for Another Location

Airport:

Trip Planner

Search our weather history database for the weather conditions in past years. The results will help you decide how hot, cold, wet, or windy it might be!

Date:

Astronomy

Jan. 30, 2013 Rise Set
Actual Time 7:03 AM CST 5:15 PM CST
Civil Twilight 6:34 AM CST 5:43 PM CST
Nautical Twilight 6:03 AM CST 6:15 PM CST
Astronomical Twilight 5:31 AM CST 6:47 PM CST
Moon 9:10 PM CST (1/30) 8:33 AM CST (1/30)
Length of Visible Light 11h 09m
Length of Day
10h 12m
Waning Gibbous, 87% of the Moon is Illuminated
Jan 30
Waning Gibbous
Feb 3
Last Quarter
Feb 10
New
Feb 17
First Quarter
Feb 25
Full

Hourly Weather History & Observations

Time (CST) Temp. Windchill Dew Point Humidity Pressure Visibility Wind Dir Wind Speed Gust Speed Precip Events Conditions
12:15 AM 53.8 °F - 53.8 °F 100% 29.48 in 10.0 mi North 4.6 mph - N/A Rain Rain
12:35 AM 53.8 °F - 53.8 °F 100% 29.50 in 7.0 mi SE 3.5 mph - 0.01 in Rain Rain
12:55 AM 53.6 °F - 53.6 °F 100% 29.50 in 10.0 mi SE 3.5 mph - N/A Rain Rain
1:15 AM 53.8 °F - 53.8 °F 100% 29.47 in 10.0 mi Calm Calm - N/A Rain Rain
1:35 AM 53.6 °F - 53.6 °F 100% 29.51 in 10.0 mi SSE 3.5 mph - N/A Rain Rain
1:55 AM 53.6 °F - 53.6 °F 100% 29.48 in 7.0 mi SE 4.6 mph - 0.01 in Rain Rain
2:15 AM 53.6 °F - 53.6 °F 100% 29.47 in 10.0 mi SE 4.6 mph - 0.01 in Rain Rain
2:35 AM 53.6 °F - 53.6 °F 100% 29.47 in 10.0 mi SE 6.9 mph - 0.01 in Rain Light Rain
2:55 AM 53.6 °F - 53.6 °F 100% 29.46 in 10.0 mi SSE 6.9 mph - 0.01 in Rain Light Rain
3:15 AM 53.6 °F - 53.6 °F 100% 29.46 in 10.0 mi South 6.9 mph - N/A Rain Light Rain
3:35 AM 53.2 °F - 53.2 °F 100% 29.45 in 10.0 mi South 6.9 mph - N/A Rain Light Rain
3:55 AM 53.1 °F - 53.1 °F 100% 29.44 in 10.0 mi SSE 5.8 mph - N/A   Overcast
4:15 AM 53.1 °F - 53.1 °F 100% 29.43 in 10.0 mi SSE 6.9 mph - N/A   Overcast
4:35 AM 52.9 °F - 52.9 °F 100% 29.41 in 10.0 mi SSE 6.9 mph - N/A   Overcast
4:55 AM 52.9 °F - 52.9 °F 100% 29.40 in 10.0 mi South 8.1 mph - N/A   Overcast
5:15 AM 52.9 °F - 52.9 °F 100% 29.42 in 10.0 mi South 8.1 mph - N/A   Overcast
5:35 AM 52.7 °F - 52.7 °F 100% 29.41 in 10.0 mi South 9.2 mph - N/A   Overcast
5:55 AM 52.7 °F - 52.7 °F 100% 29.42 in 10.0 mi South 10.4 mph 17.3 mph N/A   Overcast
6:15 AM 52.7 °F - 52.7 °F 100% 29.42 in 10.0 mi South 11.5 mph - N/A   Overcast
6:35 AM 52.5 °F - 52.5 °F 100% 29.42 in 10.0 mi South 12.7 mph - N/A   Overcast
6:55 AM 52.7 °F - 52.7 °F 100% 29.42 in 10.0 mi South 11.5 mph 18.4 mph N/A   Overcast
7:15 AM 52.3 °F - 52.3 °F 100% 29.42 in 10.0 mi South 10.4 mph - N/A   Mostly Cloudy
7:35 AM 52.3 °F - 52.3 °F 100% 29.42 in 10.0 mi South 11.5 mph 17.3 mph N/A   Mostly Cloudy
7:55 AM 52.7 °F - 52.7 °F 100% 29.42 in 10.0 mi SSW 15.0 mph 23.0 mph N/A   Overcast
8:15 AM 52.7 °F - 52.7 °F 100% 29.40 in 10.0 mi SSW 13.8 mph 19.6 mph N/A   Mostly Cloudy
8:35 AM 52.9 °F - 52.7 °F 99% 29.40 in 10.0 mi South 12.7 mph - N/A   Mostly Cloudy
8:55 AM 53.6 °F - 52.9 °F 97% 29.40 in 10.0 mi SSW 13.8 mph 18.4 mph N/A   Mostly Cloudy
9:15 AM 54.0 °F - 52.7 °F 95% 29.40 in 10.0 mi SSW 15.0 mph 23.0 mph N/A   Mostly Cloudy
9:35 AM 54.5 °F - 52.9 °F 94% 29.38 in 10.0 mi South 17.3 mph 23.0 mph N/A   Mostly Cloudy
9:55 AM 54.1 °F - 53.1 °F 96% 29.39 in 7.0 mi SSW 16.1 mph 23.0 mph N/A Rain Light Rain
10:15 AM 45.1 °F 37.9 °F 45.1 °F 100% 29.42 in 2.5 mi WNW 17.3 mph 25.3 mph 0.04 in Rain Rain
10:35 AM 44.8 °F 36.6 °F 44.8 °F 100% 29.43 in 5.0 mi West 20.7 mph 27.6 mph 0.04 in Rain Rain
10:55 AM 45.0 °F 37.9 °F 44.8 °F 99% 29.43 in 10.0 mi West 16.1 mph 27.6 mph 0.04 in   Overcast
11:15 AM 45.5 °F 37.8 °F 43.0 °F 91% 29.42 in 10.0 mi West 19.6 mph 26.5 mph N/A   Overcast
11:35 AM 44.8 °F 36.9 °F 41.7 °F 89% 29.43 in 10.0 mi West 19.6 mph 27.6 mph N/A Rain Rain
11:55 AM 44.8 °F 38.3 °F 42.1 °F 90% 29.41 in 10.0 mi West 13.8 mph 24.2 mph N/A   Overcast
12:15 PM 44.6 °F 36.1 °F 40.8 °F 87% 29.42 in 10.0 mi West 21.9 mph 26.5 mph N/A   Overcast
12:35 PM 44.6 °F 36.4 °F 39.6 °F 82% 29.44 in 10.0 mi West 20.7 mph 28.8 mph N/A   Overcast
12:55 PM 44.2 °F 34.6 °F 38.8 °F 81% 29.44 in 10.0 mi West 27.6 mph 31.1 mph N/A   Drizzle
1:15 PM 43.2 °F 34.7 °F 37.8 °F 81% 29.42 in 10.0 mi West 19.6 mph 26.5 mph N/A   Light Drizzle
1:35 PM 43.0 °F 33.8 °F 36.1 °F 77% 29.44 in 10.0 mi West 23.0 mph 29.9 mph N/A   Overcast
1:55 PM 42.8 °F 34.0 °F 36.5 °F 78% 29.45 in 10.0 mi West 20.7 mph 26.5 mph N/A   Overcast
2:15 PM 39.6 °F 27.7 °F 33.6 °F 79% 29.48 in 10.0 mi West 31.1 mph 40.3 mph N/A   Overcast
2:35 PM 39.2 °F 28.0 °F 32.7 °F 78% 29.49 in 10.0 mi West 26.5 mph 39.1 mph N/A   Overcast
2:55 PM 38.7 °F 28.3 °F 33.1 °F 80% 29.52 in 10.0 mi West 21.9 mph 39.1 mph N/A   Mostly Cloudy
3:15 PM 36.9 °F 25.9 °F 32.0 °F 83% 29.55 in 10.0 mi West 21.9 mph 27.6 mph N/A   Overcast
3:35 PM 36.3 °F 24.4 °F 30.7 °F 80% 29.56 in 10.0 mi WNW 25.3 mph 34.5 mph N/A   Overcast
3:55 PM 35.6 °F 24.5 °F 30.2 °F 81% 29.57 in 10.0 mi WNW 20.7 mph 32.2 mph N/A   Overcast
4:15 PM 34.9 °F 22.0 °F 31.1 °F 86% 29.58 in 10.0 mi West 27.6 mph 36.8 mph N/A Snow Light Snow
4:35 PM 34.9 °F 23.6 °F 28.8 °F 78% 29.60 in 10.0 mi WNW 20.7 mph 29.9 mph N/A   Overcast
4:55 PM 34.3 °F 22.6 °F 29.8 °F 84% 29.62 in 10.0 mi West 21.9 mph 27.6 mph N/A   Overcast
5:15 PM 34.0 °F 21.0 °F 28.0 °F 79% 29.63 in 10.0 mi West 26.5 mph 34.5 mph N/A   Overcast
5:35 PM 33.4 °F 22.7 °F 26.6 °F 76% 29.64 in 10.0 mi WNW 17.3 mph 36.8 mph N/A   Overcast
5:55 PM 33.3 °F 21.5 °F 27.0 °F 78% 29.65 in 10.0 mi West 20.7 mph 25.3 mph N/A   Overcast
6:15 PM 33.4 °F 21.1 °F 27.9 °F 80% 29.66 in 10.0 mi WNW 23.0 mph 33.4 mph N/A   Overcast
6:35 PM 32.9 °F 21.3 °F 25.5 °F 74% 29.68 in 10.0 mi West 19.6 mph 39.1 mph N/A   Overcast
6:55 PM 32.9 °F 22.4 °F 26.4 °F 77% 29.69 in 10.0 mi WNW 16.1 mph 31.1 mph N/A   Overcast
7:15 PM 32.4 °F 19.4 °F 26.4 °F 79% 29.71 in 10.0 mi WNW 24.2 mph 41.4 mph N/A   Overcast
7:35 PM 32.0 °F 18.4 °F 23.7 °F 71% 29.73 in 10.0 mi WNW 26.5 mph 33.4 mph N/A   Overcast
7:55 PM 31.8 °F 20.2 °F 24.8 °F 75% 29.75 in 10.0 mi WNW 18.4 mph 28.8 mph N/A   Overcast
8:15 PM 31.6 °F 19.3 °F 24.8 °F 76% 29.76 in 10.0 mi WNW 20.7 mph 32.2 mph N/A   Overcast
8:35 PM 31.5 °F 20.5 °F 24.3 °F 75% 29.78 in 10.0 mi WNW 16.1 mph 31.1 mph N/A Snow Light Snow
8:55 PM 31.1 °F 20.5 °F 23.4 °F 73% 29.79 in 10.0 mi WNW 15.0 mph 24.2 mph N/A Snow Light Snow
9:15 PM 31.1 °F 17.7 °F 21.6 °F 68% 29.80 in 10.0 mi West 24.2 mph 33.4 mph N/A   Overcast
9:35 PM 31.1 °F 17.7 °F 21.2 °F 67% 29.81 in 10.0 mi West 24.2 mph 31.1 mph N/A   Overcast
9:55 PM 31.1 °F 18.0 °F 20.5 °F 65% 29.82 in 10.0 mi WNW 23.0 mph 34.5 mph N/A   Overcast
10:15 PM 31.1 °F 17.7 °F 20.5 °F 65% 29.83 in 10.0 mi West 24.2 mph 33.4 mph N/A   Overcast
10:35 PM 31.1 °F 19.3 °F 20.7 °F 65% 29.84 in 10.0 mi WNW 18.4 mph 28.8 mph N/A   Overcast
10:55 PM 30.2 °F 18.5 °F 21.2 °F 69% 29.85 in 10.0 mi West 17.3 mph 24.2 mph N/A   Overcast
11:15 PM 30.7 °F 17.5 °F 23.0 °F 73% 29.85 in 10.0 mi West 23.0 mph 28.8 mph N/A Snow Light Snow
11:35 PM 30.7 °F 17.5 °F 22.5 °F 71% 29.86 in 10.0 mi West 23.0 mph 26.5 mph N/A   Overcast
11:55 PM 30.6 °F 17.6 °F 23.5 °F 75% 29.87 in 10.0 mi West 21.9 mph 31.1 mph N/A Snow Light Snow